Wind_Speed
8 8 8 7 8 10 13 16 16 15 14 13 11 10 10 10 9 8 6 5 4 3 4 5 6 7 8 8 8 8 7 7 5 5 5 5 6 6 6 6 5 5 5 4 4 4 3 3 2
7 7 8 9 8 10 14 16 16 15 15 14 12 11 11 10 9 8 7 6 5 4 4 5 7 7 8 9 9 9 8 7 6 6 6 6 6 6 6 6 6 6 5 5 4 4 3 3 3
6 6 7 8 9 11 13 15 17 17 15 15 14 13 13 12 9 8 7 7 5 5 5 5 7 8 9 10 10 10 9 8 7 7 6 6 6 7 7 7 6 6 6 5 5 4 4 3 3
5 4 5 5 7 10 13 15 17 17 17 15 15 15 13 13 11 10 8 7 6 6 6 6 7 8 10 10 11 11 10 9 8 7 7 6 7 7 7 7 6 6 5 5 5 5 4 4 4
3 4 4 4 7 10 12 15 16 18 18 17 16 16 15 14 12 11 9 8 7 7 6 6 8 9 10 11 11 11 11 10 10 8 7 7 7 7 7 7 6 6 6 5 5 5 4 4 4
1 1 3 4 6 9 11 13 16 18 18 16 17 17 16 15 13 12 11 8 8 7 6 6 8 9 10 11 12 12 12 12 11 9 8 7 7 7 7 7 6 6 6 5 5 5 5 4 4
1 1 1 4 6 9 12 14 17 18 18 18 18 17 16 15 14 13 11 10 8 8 6 6 7 9 10 12 12 13 12 12 11 10 9 9 8 8 7 6 6 6 5 5 5 5 4 4 4
2 1 0 2 6 9 11 14 16 17 18 19 18 17 17 16 14 13 13 11 9 8 7 6 8 10 11 12 13 13 13 12 12 11 10 10 9 8 7 7 6 6 6 6 6 5 4 4 3
3 2 1 1 5 7 9 12 15 18 18 18 18 18 17 17 15 14 13 11 9 8 8 8 8 10 11 13 14 14 14 13 12 12 11 10 9 8 8 7 6 6 6 6 5 5 4 3 3
5 5 4 3 4 6 8 11 15 17 18 18 17 18 18 17 17 15 12 11 10 8 7 8 9 10 11 12 14 15 14 13 13 12 11 11 10 9 8 7 6 6 5 5 5 4 4 3 3
7 7 7 6 5 7 8 10 13 15 17 18 18 18 18 18 18 17 14 12 10 7 8 8 10 11 11 12 13 14 14 13 13 12 12 10 10 9 8 7 6 5 5 4 4 4 3 3 2
9 9 9 7 6 7 8 10 12 14 17 19 18 18 18 19 19 19 16 12 10 8 7 8 9 10 11 12 13 14 14 14 14 12 12 11 10 9 8 6 5 4 4 4 4 3 3 2 2
11 12 11 9 7 8 9 10 11 14 17 18 18 19 19 19 19 19 17 13 10 8 8 8 8 10 11 12 14 14 14 14 13 12 12 11 10 9 8 6 5 4 4 3 3 3 2 2 1
12 12 10 8 7 9 9 9 11 14 17 17 18 19 19 19 19 18 16 13 10 8 9 9 10 11 11 12 13 15 15 14 14 13 12 11 11 10 8 6 5 4 4 3 2 2 1 1 1
10 10 8 7 7 9 9 9 10 13 16 18 19 20 19 18 19 18 14 12 11 9 9 9 9 10 9 11 12 14 15 15 15 14 12 12 11 10 9 7 5 5 4 3 2 1 1 1 1
10 9 7 7 7 8 9 9 10 13 17 19 20 20 19 18 18 17 14 11 11 9 7 6 8 8 9 10 11 12 14 14 15 14 13 12 11 10 9 8 7 6 5 3 3 2 2 2 2
10 10 9 7 8 8 11 11 11 14 17 19 20 20 18 18 18 16 13 10 9 7 6 4 6 6 7 9 10 11 13 14 15 14 13 12 11 10 9 9 8 7 6 5 4 3 2 2 2
13 12 11 9 9 9 11 12 12 14 18 20 20 21 18 17 16 15 12 9 8 7 4 3 5 5 7 9 10 12 13 14 15 15 14 13 12 10 10 10 9 8 7 6 5 4 4 3 3
15 15 13 11 10 11 12 13 13 15 18 21 20 20 18 17 15 13 10 7 6 5 2 3 4 5 7 9 10 12 13 15 16 16 16 14 12 11 11 11 10 9 8 7 6 5 4 4 4
16 15 13 12 11 14 15 15 15 17 18 19 19 17 16 15 14 12 8 5 4 4 1 4 4 5 7 8 10 12 13 16 17 17 16 15 13 12 12 12 11 9 9 8 7 6 5 5 4
16 14 12 12 14 17 17 17 17 18 18 18 17 15 14 12 12 10 6 4 4 3 1 2 2 4 7 9 10 11 11 12 15 17 16 15 14 13 13 13 12 10 10 9 8 7 6 5 4
16 14 13 14 16 18 18 18 17 19 19 18 15 13 12 10 10 8 5 4 4 3 2 0 2 4 6 9 10 11 12 13 14 15 16 15 14 14 13 13 12 11 10 10 9 8 7 5 5
14 14 15 17 18 18 18 19 17 17 16 15 13 10 9 9 9 7 6 5 3 3 2 1 2 4 6 8 10 11 12 14 14 14 14 14 14 14 14 13 13 12 11 10 10 9 8 7 6
15 15 17 19 18 17 16 17 16 16 16 13 9 7 7 8 8 7 6 5 4 3 2 1 2 4 6 8 10 11 12 13 14 14 14 14 15 14 14 14 14 13 12 12 11 10 9 9 8
15 16 17 18 17 14 13 14 13 15 14 11 7 6 6 6 7 7 6 5 4 4 3 1 2 4 6 7 10 11 12 12 13 14 15 15 14 15 15 15 15 14 14 13 12 12 11 11 10
14 15 16 17 16 14 14 14 12 12 11 9 7 4 5 5 6 6 5 4 4 4 3 2 2 4 6 8 9 12 13 13 14 14 15 15 15 15 15 15 15 15 15 15 14 13 13 13 13
13 14 15 16 16 16 14 14 12 10 8 8 6 4 5 5 5 5 5 4 4 4 3 2 2 3 5 8 10 11 13 15 15 15 16 16 16 16 16 16 16 17 17 16 16 16 15 15 15
12 11 15 16 17 17 15 14 14 12 10 9 8 6 5 4 4 5 4 4 4 3 3 3 3 3 5 7 10 12 13 15 15 16 16 16 16 16 16 16 17 17 17 17 17 18 18 18 18
14 15 16 17 18 19 18 16 14 14 13 11 9 7 5 4 4 4 4 5 4 4 4 4 4 4 5 6 8 12 13 14 16 17 17 17 17 17 17 17 17 17 18 19 19 19 19 19 19
17 16 16 18 18 19 20 19 16 15 13 11 10 8 8 7 5 4 4 5 5 4 4 5 5 5 5 6 8 10 12 14 16 17 17 18 17 18 18 17 18 19 19 20 20 20 21 21 21
Wind_Direction
72 72 69 72 69 58 43 36 29 20 15 15 13 8 0 357 355 344 338 339 322 294 253 238 227 223 223 226 229 231 234 236 241 256 273 285 292 296 300 304 305 307 309 308 308 312 317 315 313
70 72 69 75 68 51 39 32 21 16 11 10 8 8 6 0 357 342 332 328 308 292 267 247 234 225 225 226 228 229 231 232 238 252 266 277 288 291 295 297 299 302 305 305 304 307 309 308 306
66 72 69 69 56 45 37 28 16 9 5 4 1 2 2 358 355 342 335 327 310 295 277 257 238 229 224 225 226 223 223 228 236 248 260 273 283 286 287 289 292 296 300 300 300 302 303 299 294
62 65 66 60 48 41 35 22 5 360 357 356 356 356 356 351 347 340 336 334 322 306 287 267 246 234 226 222 222 221 222 227 234 244 257 272 281 281 282 283 288 293 296 295 296 296 295 292 285
60 53 55 44 37 34 27 15 359 354 352 353 355 352 350 349 344 338 333 334 326 309 290 265 249 237 226 221 222 224 227 230 233 240 253 267 272 276 280 280 283 288 292 291 292 292 290 287 283
66 27 43 44 41 31 20 8 353 348 346 351 354 354 349 349 346 338 332 333 324 310 293 266 251 238 229 227 227 227 226 230 232 238 249 257 263 270 274 276 280 285 286 288 291 291 288 283 283
322 312 56 59 46 28 13 0 348 343 343 348 352 352 348 347 346 336 331 326 320 308 294 273 255 242 237 231 227 227 226 229 231 234 241 248 254 263 266 268 275 279 279 284 288 288 283 282 281
291 258 188 48 36 25 7 352 341 335 338 345 349 348 347 345 344 340 334 322 313 301 287 273 259 240 237 235 229 228 227 227 230 232 237 243 250 257 258 264 272 276 278 282 283 284 278 279 276
258 241 252 21 19 9 356 339 329 329 335 343 345 343 344 341 341 338 332 324 311 301 285 273 258 242 237 235 229 226 225 226 228 231 234 241 246 250 254 262 267 274 278 281 282 280 276 274 271
246 245 256 288 330 333 331 321 320 327 332 336 334 336 339 337 336 335 332 325 309 300 280 269 258 241 238 230 226 224 222 223 224 230 236 243 245 245 251 256 264 272 275 276 277 276 277 269 260
247 244 256 273 297 311 310 310 316 324 330 334 331 331 335 335 333 332 327 321 306 291 276 264 257 238 233 226 220 219 219 219 223 228 233 239 242 243 249 254 260 265 266 267 270 275 279 265 253
249 246 252 260 278 293 297 304 313 321 328 330 332 333 333 335 332 330 325 318 309 289 273 270 252 234 230 223 217 216 215 218 223 227 228 232 240 242 241 243 250 253 255 261 267 270 272 268 248
255 249 247 250 264 281 290 297 314 321 325 327 330 333 333 337 334 328 326 318 313 289 271 262 253 238 231 225 216 213 213 217 219 219 221 228 233 229 228 231 234 236 233 246 257 262 263 270 246
261 256 258 260 270 283 285 292 311 323 327 330 331 333 336 335 332 330 326 321 313 297 280 263 250 240 232 221 210 207 208 211 213 212 216 221 222 223 222 222 223 223 210 214 233 247 249 263 233
261 258 259 259 270 278 286 300 311 320 325 330 330 333 336 337 335 332 328 324 317 300 287 263 243 231 223 204 200 201 203 209 209 209 210 209 214 217 214 211 214 207 200 195 199 203 198 181 161
252 247 247 266 276 281 287 299 306 318 325 331 330 332 335 336 337 335 332 328 319 307 290 259 232 220 204 196 194 199 201 205 205 206 202 202 206 208 208 210 205 198 195 186 179 174 158 145 150
245 240 248 270 282 276 286 298 307 317 321 326 330 330 331 337 337 335 330 329 324 320 301 245 211 200 202 203 199 199 205 203 201 201 200 201 202 207 206 199 196 195 193 184 175 163 142 135 139
244 244 251 277 289 280 285 296 302 311 316 319 324 328 330 334 336 335 330 332 330 324 302 221 205 194 187 195 201 203 199 199 199 199 201 200 201 204 201 193 195 193 189 179 168 156 139 126 126
249 252 260 274 284 284 285 291 295 301 310 313 318 325 329 332 333 335 334 339 339 335 290 202 195 185 184 192 199 198 197 195 196 199 199 199 200 199 196 193 193 190 185 180 171 162 150 138 132
253 256 261 267 273 280 282 286 291 296 303 307 316 324 327 331 334 335 332 342 340 341 315 197 187 189 189 190 195 194 195 197 198 197 197 197 196 198 197 195 195 193 189 186 181 175 166 160 157
251 255 259 263 266 272 279 284 292 295 297 302 314 327 333 341 340 338 338 354 3 7 55 161 183 187 192 194 193 192 190 194 195 194 195 197 198 199 198 198 199 197 195 192 189 188 184 182 180
254 254 256 258 263 267 274 280 281 283 288 296 309 325 335 343 349 348 356 4 31 39 43 24 198 184 187 195 192 192 194 193 193 195 197 198 199 199 200 202 202 200 200 199 199 200 200 200 203
254 256 255 254 260 265 270 277 274 276 282 291 302 319 342 356 1 6 1 2 21 20 18 347 205 190 196 197 192 193 194 196 196 196 200 201 200 201 203 205 206 205 204 206 208 210 213 217 221
249 253 253 253 257 262 269 277 279 283 286 285 292 315 348 357 356 1 1 358 13 357 349 340 200 197 198 198 197 194 194 197 201 201 202 204 204 205 208 210 212 213 213 217 220 222 226 230 235
245 250 253 252 253 258 267 277 285 290 288 280 287 322 348 1 355 356 360 5 360 344 327 276 218 205 207 202 199 197 199 202 204 205 205 207 208 210 213 215 217 220 221 224 228 232 235 240 245
247 249 252 254 254 255 262 279 289 293 295 286 279 304 340 3 358 351 354 351 344 337 330 291 239 225 217 210 207 207 208 208 210 209 210 209 213 215 217 219 221 224 226 231 235 239 242 246 250
243 249 254 254 254 257 265 275 283 296 297 291 284 299 342 350 349 345 347 338 340 340 335 301 265 248 237 222 221 215 213 215 213 213 213 213 215 220 222 225 227 228 232 237 241 243 246 250 253
237 247 251 250 254 257 262 269 282 290 295 293 289 300 325 339 344 342 338 329 331 340 337 308 285 281 264 241 227 220 218 218 217 216 216 218 220 224 227 230 233 235 238 241 245 247 252 255 258
230 237 246 250 251 256 261 269 278 287 296 301 292 293 293 304 316 325 334 320 318 324 321 306 288 277 263 244 228 223 222 221 219 217 220 222 225 229 232 237 238 240 241 245 247 250 255 258 261
227 233 240 247 251 255 261 266 273 281 291 294 292 288 296 299 298 299 314 311 305 306 305 301 290 274 260 244 234 229 226 223 222 221 222 223 226 230 235 239 242 246 247 249 251 253 256 260 263
Height
5897 5896 5895 5895 5895 5894 5891 5891 5890 5889 5888 5887 5886 5885 5884 5884 5883 5884 5881 5880 5881 5881 5881 5881 5882 5883 5884 5885 5886 5887 5888 5889 5890 5891 5891 5891 5891 5891 5891 5890 5889 5888 5888 5887 5886 5886 5885 5885 5885
5897 5897 5896 5896 5895 5893 5892 5891 5891 5889 5888 5887 5886 5885 5884 5883 5882 5880 5879 5879 5879 5879 5879 5880 5880 5881 5883 5884 5885 5886 5887 5888 5889 5890 5891 5891 5891 5891 5890 5890 5889 5888 5888 5887 5886 5886 5885 5885 5885
5897 5897 5897 5896 5895 5893 5892 5891 5891 5890 5888 5887 5886 5885 5884 5882 5881 5879 5878 5877 5877 5877 5878 5878 5879 5880 5881 5882 5884 5885 5886 5887 5889 5890 5890 5891 5891 5890 5890 5889 5889 5888 5887 5887 5886 5886 5885 5885 5884
5898 5897 5897 5896 5894 5892 5891 5890 5891 5890 5888 5887 5885 5884 5883 5882 5879 5878 5876 5875 5875 5875 5876 5876 5877 5878 5880 5881 5882 5884 5885 5886 5888 5889 5889 5890 5890 5890 5890 5889 5889 5888 5887 5886 5886 5885 5885 5884 5884
5897 5898 5897 5895 5894 5893 5891 5891 5891 5890 5888 5887 5885 5883 5881 5880 5877 5875 5874 5874 5873 5873 5873 5874 5875 5876 5878 5879 5881 5883 5884 5885 5886 5888 5888 5889 5889 5889 5889 5889 5888 5887 5887 5886 5885 5885 5884 5884 5884
5898 5898 5897 5895 5894 5893 5892 5891 5891 5889 5888 5886 5885 5883 5880 5878 5876 5874 5872 5871 5871 5871 5871 5871 5873 5874 5876 5878 5879 5881 5882 5884 5885 5886 5887 5888 5888 5888 5888 5888 5887 5887 5886 5885 5885 5884 5884 5884 5884
5898 5898 5896 5895 5894 5893 5892 5892 5891 5889 5887 5886 5884 5882 5879 5877 5875 5872 5870 5869 5869 5869 5869 5870 5870 5872 5873 5875 5877 5879 5881 5882 5884 5885 5886 5887 5887 5887 5887 5887 5886 5886 5885 5885 5884 5883 5883 5883 5883
5897 5898 5896 5895 5894 5893 5892 5891 5890 5889 5887 5885 5883 5880 5878 5876 5874 5872 5869 5868 5867 5867 5867 5867 5868 5869 5871 5873 5875 5877 5879 5881 5882 5883 5884 5885 5886 5886 5886 5886 5886 5885 5884 5884 5883 5883 5883 5883 5883
5897 5897 5895 5894 5893 5892 5891 5891 5890 5887 5886 5884 5881 5879 5877 5875 5873 5871 5868 5866 5865 5865 5864 5865 5866 5867 5868 5870 5872 5874 5877 5879 5881 5882 5883 5884 5884 5885 5885 5885 5885 5884 5883 5883 5882 5882 5882 5882 5882
5896 5895 5894 5893 5892 5892 5890 5891 5889 5887 5885 5883 5880 5878 5875 5873 5870 5869 5866 5864 5863 5862 5861 5862 5863 5864 5866 5867 5870 5872 5874 5877 5879 5880 5881 5882 5883 5884 5884 5884 5884 5883 5883 5882 5881 5881 5881 5882 5882
5894 5894 5893 5892 5891 5890 5889 5889 5888 5886 5884 5882 5879 5876 5873 5871 5868 5865 5863 5862 5860 5859 5859 5859 5860 5862 5864 5865 5867 5870 5872 5875 5877 5878 5880 5881 5881 5882 5883 5883 5883 5883 5882 5881 5881 5881 5881 5881 5881
5893 5892 5891 5890 5889 5889 5888 5887 5886 5884 5883 5880 5878 5874 5871 5868 5865 5862 5859 5858 5857 5856 5856 5857 5858 5859 5861 5863 5865 5867 5870 5872 5874 5876 5877 5879 5880 5881 5881 5882 5882 5882 5881 5881 5881 5880 5880 5880 5880
5891 5890 5888 5887 5887 5886 5885 5885 5884 5882 5880 5878 5876 5873 5868 5864 5861 5858 5856 5854 5854 5853 5853 5853 5854 5856 5858 5860 5862 5864 5867 5870 5872 5874 5875 5877 5878 5879 5880 5881 5881 5881 5881 5881 5880 5880 5880 5880 5879
5889 5888 5887 5886 5885 5884 5883 5883 5882 5880 5877 5876 5873 5871 5866 5862 5858 5856 5853 5851 5850 5850 5850 5850 5852 5853 5855 5857 5859 5861 5864 5867 5870 5872 5873 5875 5876 5878 5879 5880 5880 5880 5880 5880 5880 5880 5880 5879 5879
5886 5886 5886 5885 5884 5882 5882 5881 5879 5877 5875 5873 5871 5868 5864 5860 5856 5852 5850 5848 5848 5848 5848 5848 5848 5851 5852 5854 5857 5859 5862 5865 5867 5869 5871 5873 5875 5877 5878 5879 5879 5880 5880 5880 5880 5880 5879 5879 5879
5884 5884 5884 5883 5882 5880 5880 5879 5877 5875 5873 5872 5869 5866 5862 5858 5854 5850 5847 5846 5845 5845 5844 5845 5847 5849 5851 5853 5855 5857 5860 5863 5865 5867 5869 5872 5874 5875 5877 5878 5879 5879 5879 5880 5880 5880 5879 5879 5879
5881 5881 5881 5880 5879 5878 5877 5876 5875 5873 5871 5870 5867 5864 5860 5856 5852 5849 5846 5845 5844 5843 5842 5843 5844 5846 5849 5851 5853 5856 5858 5861 5863 5866 5868 5870 5872 5874 5875 5877 5878 5878 5879 5879 5879 5879 5880 5879 5879
5878 5878 5877 5877 5876 5875 5873 5873 5872 5871 5869 5867 5865 5861 5857 5854 5852 5848 5846 5844 5843 5842 5842 5841 5843 5845 5847 5849 5852 5854 5856 5859 5861 5864 5866 5868 5870 5872 5874 5875 5877 5877 5878 5879 5879 5880 5880 5880 5880
5875 5874 5874 5874 5873 5872 5871 5870 5870 5869 5867 5865 5862 5859 5856 5852 5849 5847 5845 5844 5843 5842 5841 5841 5842 5844 5846 5848 5850 5852 5855 5857 5860 5862 5864 5867 5868 5870 5872 5874 5876 5877 5878 5878 5879 5880 5880 5880 5880
5871 5871 5871 5872 5870 5869 5868 5868 5868 5867 5865 5862 5860 5856 5854 5850 5848 5845 5844 5843 5842 5841 5840 5840 5842 5843 5845 5847 5848 5851 5853 5855 5857 5860 5862 5865 5867 5869 5871 5873 5874 5876 5877 5878 5879 5879 5880 5880 5880
5867 5868 5868 5869 5867 5867 5866 5866 5865 5865 5863 5861 5858 5855 5852 5849 5846 5843 5842 5843 5842 5841 5842 5842 5842 5842 5844 5846 5848 5850 5851 5853 5855 5858 5861 5863 5865 5867 5869 5871 5873 5875 5876 5877 5878 5879 5879 5880 5880
5863 5864 5865 5865 5865 5864 5864 5863 5864 5862 5861 5858 5857 5854 5851 5849 5846 5844 5843 5842 5842 5842 5842 5842 5842 5843 5844 5845 5847 5849 5850 5852 5854 5857 5859 5861 5863 5866 5868 5870 5872 5873 5875 5876 5877 5878 5879 5879 5880
5859 5860 5861 5861 5861 5861 5861 5861 5861 5859 5858 5857 5855 5853 5850 5848 5846 5845 5844 5843 5842 5842 5842 5842 5842 5843 5844 5845 5846 5848 5849 5851 5853 5855 5857 5859 5862 5864 5866 5868 5870 5872 5873 5874 5875 5876 5877 5878 5878
5855 5856 5857 5857 5858 5858 5859 5858 5858 5856 5855 5855 5853 5851 5849 5847 5846 5845 5843 5842 5841 5841 5841 5841 5842 5842 5843 5844 5845 5846 5848 5850 5852 5853 5856 5858 5860 5863 5865 5867 5868 5870 5871 5873 5874 5875 5875 5876 5876
5851 5852 5853 5853 5854 5855 5855 5855 5855 5854 5853 5851 5851 5850 5848 5846 5845 5844 5842 5841 5841 5841 5841 5841 5841 5841 5842 5842 5843 5845 5846 5848 5850 5852 5854 5856 5858 5860 5862 5864 5866 5867 5869 5870 5871 5872 5873 5873 5874
5847 5849 5850 5851 5851 5851 5851 5851 5852 5850 5849 5848 5848 5847 5846 5845 5844 5843 5841 5841 5840 5840 5840 5840 5840 5840 5841 5841 5842 5843 5845 5847 5848 5850 5852 5854 5856 5858 5860 5862 5863 5865 5866 5868 5869 5870 5870 5871 5871
5844 5844 5846 5847 5847 5847 5848 5848 5849 5847 5847 5846 5845 5845 5843 5843 5843 5842 5841 5841 5840 5839 5839 5839 5839 5839 5839 5840 5841 5842 5843 5844 5846 5848 5850 5852 5854 5855 5857 5859 5860 5861 5863 5864 5865 5866 5867 5867 5868
5840 5842 5842 5843 5843 5843 5844 5845 5846 5845 5844 5844 5843 5842 5841 5841 5841 5841 5840 5840 5839 5839 5838 5838 5838 5838 5838 5838 5839 5839 5841 5842 5843 5845 5847 5849 5851 5853 5854 5855 5857 5858 5859 5860 5861 5862 5863 5863 5863
5836 5837 5838 5839 5839 5840 5840 5844 5843 5842 5841 5840 5840 5840 5839 5840 5840 5840 5839 5839 5838 5838 5837 5837 5836 5836 5836 5836 5836 5837 5838 5839 5840 5842 5844 5846 5848 5849 5850 5852 5853 5854 5855 5856 5857 5858 5858 5858 5859
5831 5832 5834 5835 5836 5836 5837 5841 5839 5839 5838 5838 5837 5837 5838 5838 5838 5838 5838 5837 5837 5836 5836 5836 5835 5834 5834 5834 5834 5834 5835 5836 5838 5839 5841 5843 5844 5845 5847 5848 5849 5850 5851 5852 5852 5853 5853 5853 5854